This demonstration page uses our WeatherBlox Daily Observations layout. Learn more.

Left ArrowRight Arrow

44.31136, -96.79839

Hourly Observations for May 23, 2022

Temp ( °F °C ) Dew Point ( °F °C ) Humidity (%) Winds ( mph kmh ) Pressure ( in mb ) Visibility ( mi km ) Precip ( " mm )
12:56 am 00:56 Clear 41 5 32 0 70 70 SE 8 13 30.40 1030 10 16 0.00 0.00
1:56 am 01:56 Clear 41 5 31 -0.6 67 67 SE 9 15 30.40 1029 10 16 0.00 0.00
2:56 am 02:56 Mostly Cloudy 40 4.4 32 0 73 73 SE 8 13 30.39 1029 10 16 0.00 0.00
3:56 am 03:56 Mostly Cloudy 41 5 32 0 70 70 SE 10 17 30.37 1029 10 16 0.00 0.00
4:56 am 04:56 Mostly Cloudy 41 5 33 0.6 73 73 SE 8 13 30.36 1028 10 16 0.00 0.00
5:56 am 05:56 Cloudy 43 6.1 32 0 65 65 SE 10 17 30.36 1028 10 16 0.00 0.00
6:56 am 06:56 Cloudy 45 7.2 30 -1.1 56 56 SE 10 17 30.36 1028 10 16 0.00 0.00
7:56 am 07:56 Partly Cloudy 48 8.9 30 -1.1 50 50 SE 13 20 30.36 1028 10 16 0.00 0.00
8:56 am 08:56 Sunny 55 12.8 30 -1.1 38 38 SSE 16 26 30.35 1028 10 16 0.00 0.00
9:56 am 09:56 Sunny 59 15 32 0 36 36 SSE 15 24 30.33 1027 10 16 0.00 0.00
10:56 am 10:56 Sunny 62 16.7 33 0.6 34 34 SSE 18 30 30.30 1026 10 16 0.00 0.00
11:56 am 11:56 Sunny 64 17.8 35 1.7 34 34 SSE 15 24 30.28 1025 10 16 0.00 0.00
12:56 pm 12:56 Sunny 67 19.4 36 2.2 32 32 SSE 16 26 30.26 1025 10 16 0.00 0.00
1:56 pm 13:56 Mostly Sunny 68 20 37 2.8 32 32 SSE 17 28 30.23 1024 10 16 0.00 0.00
2:56 pm 14:56 Partly Cloudy 66 18.9 37 2.8 34 34 S 15 24 30.22 1023 10 16 0.00 0.00
3:56 pm 15:56 Mostly Sunny 67 19.4 37 2.8 33 33 S 14 22 30.20 1023 10 16 0.00 0.00
4:56 pm 16:56 Partly Cloudy 64 17.8 38 3.3 38 38 S 13 20 30.20 1023 10 16 0.00 0.00
5:56 pm 17:56 Mostly Cloudy 63 17.2 41 5 45 45 WSW 14 22 30.22 1023 10 16 0.00 0.00
6:56 pm 18:56 Mostly Sunny 63 17.2 40 4.4 43 43 SW 15 24 30.21 1023 10 16 0.00 0.00
7:56 pm 19:56 Sunny 58 14.4 39 3.9 50 50 S 10 17 30.21 1023 10 16 0.00 0.00
8:56 pm 20:56 Mostly Cloudy 57 13.9 37 2.8 47 47 S 8 13 30.21 1023 10 16 0.00 0.00
9:56 pm 21:56 Cloudy 56 13.3 38 3.3 51 51 SSE 6 9 30.22 1023 10 16 0.00 0.00
10:56 pm 22:56 Mostly Clear 54 12.2 39 3.9 57 57 SSE 7 11 30.24 1024 10 16 0.00 0.00
11:56 pm 23:56 Cloudy 53 11.7 40 4.4 61 61 SSE 5 7 30.23 1024 10 16 0.00 0.00

Powered by AerisWeather